Weather History for Rogers, AR

Change the Weather History Date:

Thursday, March 7, 2013

  Actual Average Record
Temperature  
Mean Temperature 50 °F -  
Max Temperature 63 °F 51 °F 69 °F (2003)
Min Temperature 36 °F 32 °F 26 °F (1999)
Degree Days  
Heating Degree Days 16    
Moisture  
Dew Point 25 °F    
Average Humidity 42    
Maximum Humidity 73    
Minimum Humidity 19    
Precipitation  
Precipitation 0.00 in - - ()
Sea Level Pressure  
Sea Level Pressure 30.22 in    
Wind  
Wind Speed 9 mph (SE)    
Max Wind Speed 13 mph    
Max Gust Speed 18 mph    
Visibility 10 miles    
Events      
Averages and records for this station are not official NWS values.
T = Trace of Precipitation, MM = Missing Value Source: NWS Daily Summary

Daily Weather History Graph

Daily Weather History Graph

Search for Another Location

Airport:

Trip Planner

Search our weather history database for the weather conditions in past years. The results will help you decide how hot, cold, wet, or windy it might be!

Date:

Astronomy

Mar. 07, 2013 Rise Set
Actual Time 6:38 AM CST 6:16 PM CST
Civil Twilight 6:12 AM CST 6:42 PM CST
Nautical Twilight 5:42 AM CST 7:12 PM CST
Astronomical Twilight 5:12 AM CST 7:42 PM CST
Moon 3:32 AM CST (3/7) 2:11 PM CST (3/7)
Length of Visible Light 12h 30m
Length of Day
11h 38m
Waning Crescent, 20% of the Moon is Illuminated
Mar 7
Waning Crescent
Mar 11
New
Mar 19
First Quarter
Mar 27
Full
Apr 2
Last Quarter

Hourly Weather History & Observations

Time (CST) Temp. Windchill Dew Point Humidity Pressure Visibility Wind Dir Wind Speed Gust Speed Precip Events Conditions
12:57 AM 39.0 °F 34.0 °F 23.0 °F 53% 30.26 in 10.0 mi East 6.9 mph - N/A   Partly Cloudy
1:57 AM 39.0 °F 32.8 °F 23.0 °F 53% 30.27 in 10.0 mi ESE 9.2 mph - N/A   Clear
2:57 AM 39.0 °F 34.0 °F 26.1 °F 60% 30.26 in 10.0 mi ESE 6.9 mph - N/A   Scattered Clouds
3:57 AM 39.0 °F 34.8 °F 25.0 °F 57% 30.26 in 10.0 mi ESE 5.8 mph - N/A   Overcast
4:57 AM 37.9 °F 32.7 °F 23.0 °F 55% 30.27 in 10.0 mi ESE 6.9 mph - N/A   Clear
5:57 AM 37.0 °F 29.8 °F 26.1 °F 65% 30.26 in 10.0 mi ESE 10.4 mph - N/A   Clear
6:57 AM 36.0 °F 29.0 °F 28.0 °F 73% 30.27 in 10.0 mi ESE 9.2 mph - N/A   Clear
7:57 AM 39.9 °F 32.9 °F 26.1 °F 58% 30.28 in 10.0 mi SE 11.5 mph - N/A   Clear
8:57 AM 45.0 °F 39.7 °F 24.1 °F 44% 30.27 in 10.0 mi SSE 10.4 mph - N/A   Clear
9:57 AM 50.0 °F - 24.1 °F 36% 30.29 in 10.0 mi SE 10.4 mph - N/A   Clear
10:57 AM 54.0 °F - 24.1 °F 31% 30.27 in 10.0 mi SE 11.5 mph 18.4 mph N/A   Clear
11:57 AM 59.0 °F - 23.0 °F 25% 30.26 in 10.0 mi South 12.7 mph 17.3 mph N/A   Clear
12:57 PM 60.1 °F - 21.9 °F 23% 30.22 in 10.0 mi SSE 12.7 mph 17.3 mph N/A   Clear
1:57 PM 62.1 °F - 23.0 °F 22% 30.19 in 10.0 mi SSE 9.2 mph - N/A   Clear
2:57 PM 63.0 °F - 21.0 °F 20% 30.18 in 10.0 mi SSE 9.2 mph - N/A   Clear
3:57 PM 63.0 °F - 19.9 °F 19% 30.16 in 10.0 mi SE 10.4 mph - N/A   Clear
4:57 PM 62.1 °F - 21.0 °F 21% 30.16 in 10.0 mi South 8.1 mph - N/A   Clear
5:57 PM 59.0 °F - 23.0 °F 25% 30.15 in 10.0 mi South 9.2 mph - N/A   Clear
6:57 PM 55.0 °F - 24.1 °F 30% 30.17 in 10.0 mi SSE 10.4 mph - N/A   Clear
7:57 PM 52.0 °F - 26.1 °F 37% 30.18 in 10.0 mi SE 8.1 mph - N/A   Clear
8:57 PM 50.0 °F - 28.0 °F 43% 30.17 in 10.0 mi SE 10.4 mph - N/A   Clear
9:57 PM 48.0 °F - 28.9 °F 48% 30.19 in 10.0 mi SE 5.8 mph - N/A   Clear
10:57 PM 46.0 °F 42.5 °F 30.0 °F 54% 30.21 in 10.0 mi ESE 6.9 mph - N/A   Clear
11:57 PM 45.0 °F 39.7 °F 30.9 °F 58% 30.20 in 10.0 mi ESE 10.4 mph - N/A   Clear